This is the latest recevied weather packets stored in our database for station/object F4AMY-13. If no packets are shown the sender has not sent any weather packets the latest 10 day(s).
| Time | Temp. | Humidity | Pressure | Rain* | Wind** | Luminosity | Snow |
|---|---|---|---|---|---|---|---|
| 1777451795 | 20° C | 56% | 1012.6 hPa | 0 mm | 15.2 m/s, ° | 34 W/m² | - |
| 1777451495 | 19.44° C | 56% | 1012.7 hPa | 0 mm | 14.31 m/s, ° | 32 W/m² | - |
| 1777451195 | 19.44° C | 60% | 1012.6 hPa | 0 mm | 14.31 m/s, ° | 32 W/m² | - |
| 1777450895 | 19.44° C | 62% | 1012.5 hPa | 0 mm | 13.41 m/s, ° | 30 W/m² | - |
| 1777450595 | 18.89° C | 64% | 1012.6 hPa | 0 mm | 13.41 m/s, ° | 30 W/m² | - |
| 1777450295 | 18.89° C | 67% | 1012.6 hPa | 0 mm | 12.96 m/s, ° | 29 W/m² | - |
| 1777449995 | 18.33° C | 67% | 1012.6 hPa | 0 mm | 12.52 m/s, ° | 28 W/m² | - |
| 1777449695 | 18.33° C | 67% | 1012.4 hPa | 0 mm | 12.07 m/s, ° | 27 W/m² | - |
| 1777449395 | 17.78° C | 69% | 1012.2 hPa | 0 mm | 11.62 m/s, ° | 26 W/m² | - |
| 1777449095 | 17.78° C | 69% | 1012.5 hPa | 0 mm | 11.18 m/s, ° | 25 W/m² | - |
| 1777448795 | 17.22° C | 73% | 1012.7 hPa | 0 mm | 11.18 m/s, ° | 25 W/m² | - |
| 1777448495 | 16.67° C | 74% | 1012.3 hPa | 0 mm | 10.73 m/s, ° | 24 W/m² | - |
| 1777448195 | 16.67° C | 73% | 1012.5 hPa | 0 mm | 10.28 m/s, ° | 23 W/m² | - |
| 1777447895 | 16.11° C | 76% | 1012.4 hPa | 0 mm | 10.28 m/s, ° | 23 W/m² | - |
| 1777447594 | 15.56° C | 78% | 1012.6 hPa | 0 mm | 9.83 m/s, ° | 22 W/m² | - |
| 1777447295 | 15° C | 79% | 1012.4 hPa | 0 mm | 9.39 m/s, ° | 21 W/m² | - |
| 1777446994 | 15° C | 81% | 1012.4 hPa | 0 mm | 9.39 m/s, ° | 21 W/m² | - |
| 1777446694 | 14.44° C | 86% | 1012.3 hPa | 0 mm | 8.94 m/s, ° | 20 W/m² | - |
| 1777446394 | 13.89° C | 91% | 1012.5 hPa | 0 mm | 8.94 m/s, ° | 20 W/m² | - |
| 1777446094 | 13.89° C | 94% | 1012.5 hPa | 0 mm | 8.49 m/s, ° | 19 W/m² | - |
| 1777445794 | 13.89° C | 94% | 1012.3 hPa | 0 mm | 8.49 m/s, ° | 19 W/m² | - |
| 1777445494 | 13.33° C | 95% | 1012.4 hPa | 0 mm | 8.05 m/s, ° | 18 W/m² | - |
| 1777445194 | 13.33° C | 95% | 1012.5 hPa | 0 mm | 8.05 m/s, ° | 18 W/m² | - |
| 1777444894 | 12.78° C | 95% | 1012.5 hPa | 0 mm | 7.6 m/s, ° | 17 W/m² | - |
| 1777444594 | 12.78° C | 95% | 1012.3 hPa | 0 mm | 7.6 m/s, ° | 17 W/m² | - |
* Rain latest hour (hover to see other rain measurements)
** Current wind speed in m/s (hover to see current wind gust speed)